204 Schiaparelli Observatory. Observer L. Buzzi. 0.60-m f/4.64 Newtonian
+ CCD.
213 Observatorio Montcabre. Observer R. Naves. Measurer M. Campas. 0.30-m
f/5.5 Schmidt-Cassegrain + CCD.
232 Masquefa Observatory. Observer E. Reina. 0.25-m f/3.3 Schmidt-Cassegrain
+ CCD.
379 Hamamatsu-Yuto. Observer S. Wakuda. 0.25-m f/5.0 Schmidt-Cassegrain
+ CCD.
704 Lincoln Laboratory ETS, New Mexico. Observers M. Blythe, F. Shelly,
M. Bezpalko, R. Huber, L. Manguso, S. Adams, D. Torres, T. Brothers,
S. Partridge. Measurers J. Stuart, R. Sayer, J. Evans, P. Hopman. 1.0-m
f/2.15 reflector + CCD.
762 Four Winds Observatory, Lake Leelanau. Observer R. Elliott. 0.3-m f/10
reflector + CCD.
785 Fitz-Randolph Observatory, Princeton. Observer J. Maffei. 0.91-m f/13.6
Cassegrain + CCD.
900 Moriyama. Observer Y. Ikari. 0.25-m f/6.3 Schmidt-Cassegrain + CCD.
939 Observatorio Rodeno. Observer J. Castellano. 0.20-m f/10
Schmidt-Cassegrain + CCD.
947 Saint-Sulpice. Observer B. Christophe. 0.60-m f/5.6 reflector + CCD.
A32 Panker. Observer H. Denzau. 0.36-m Schmidt-Cassegrain f/5.5 + CCD.
A46 Lelekovice. Observer K. Hornoch. 0.35-m f/4.7 reflector + CCD.
H41 Petit Jean Mountain. Observer P. C. Sherrod. 0.41-m f/3.7
Schmidt-Cassegrain + CCD.
H72 Evelyn L. Egan Observatory, Fort Myers. Observers M. Fauerbach, M. Mon.
0.40-m f/5.3 reflector + CCD.
J87 La Canada. Observer J. Lacruz. 0.30-m f/3.3 Schmidt-Cassegrain + CCD.
Orbital elements:
C/2003 H3 (NEAT)
Epoch 2003 May 1.0 TT = JDT 2452760.5
T 2003 Apr. 24.24932 TT MPC
q 2.9014543 (2000.0) P Q
z +0.0001257 Peri. 6.48269 +0.07272095 +0.73000344
+/-0.0000057 Node 269.41765 -0.94286190 -0.17181605
e 0.9996353 Incl. 42.81229 -0.32515090 +0.66149393
Residuals in seconds of arc
030430 608 0.6- 0.0 030528 349 0.3+ 0.1+ 030707 H41 0.2+ 0.0
030430 608 1.0- 0.8+ 030528 349 0.5+ 0.1- 030707 379 0.4- 0.7-
030430 608 1.1- 0.7+ 030528 349 0.2+ 0.4+ 030707 379 0.2+ 0.2-
030501 J87 0.7+ 0.3+ 030528 355 0.5+ 0.3- 030707 379 0.2+ 0.8-
030501 J87 0.5+ 0.5- 030528 355 0.7+ 0.4- 030707 379 0.5- 0.1-
030501 J87 1.4+ 0.5- 030529 A18 0.3+ 0.1- 030707 048 0.2- 0.2+
030501 J87 0.7+ 1.0- 030529 H41 0.8- 0.8- 030707 048 0.1+ 0.0
030501 J87 (0.0 2.2-) 030530 H72 0.6- 0.1+ 030707 048 0.4- 0.2-
030501 941 1.0- 0.1+ 030530 H72 0.6- 0.3+ 030707 048 0.0 0.2+
030501 941 1.1- 0.3+ 030530 H72 0.7+ 0.1+ 030707 048 0.4+ 0.4+
030501 941 1.3- 0.3+ 030530 H72 0.3+ 0.1+ 030708 785 0.0 0.7-
030501 941 0.9- 0.3+ 030530 H72 0.3+ 0.7+ 030708 785 0.3- 0.8-
030501 941 1.1- 0.5- 030530 H72 0.4- 0.1+ 030709 H41 0.3+ 0.2+
030501 941 0.9- 0.0 030531 246 0.1+ 0.1+ 030709 H41 0.1+ 0.5+
030501 854 1.2- 0.3- 030531 246 0.1+ 0.0 030709 947 (0.6- 2.7-)
030501 854 0.3- 0.5- 030531 246 0.1+ 0.1- 030709 947 0.3+ 0.3-
030501 854 0.1+ 0.0 030531 246 0.3+ 0.0 030709 947 0.3+ 0.3+
030501 854 0.0 0.2- 030531 246 0.1+ 0.1+ 030709 939 0.6- 0.0
030501 854 0.2+ 0.4- 030531 246 0.2+ 0.0 030709 939 0.5- 0.1-
030501 704 0.2- 1.4- 030531 A02 0.9+ 1.9+ 030709 939 0.8- 0.1+
030501 673 0.3+ 0.2+ 030531 A02 0.6+ 0.7+ 030710 213 0.8- 0.5+
030501 673 0.4+ 0.1+ 030531 A02 0.1- 0.1- 030710 213 0.6- 0.9+
030501 704 0.6+ 2.0- 030531 939 0.2- 0.2+ 030710 213 0.4+ 0.1+
030501 673 0.6+ 0.1- 030531 939 0.5- 0.1+ 030711 A32 0.3+ 0.0
030501 704 (2.5+ 0.9+) 030531 939 0.7- 0.5- 030711 A32 0.2+ 0.1+
030501 673 0.4+ 0.3+ 030531 H72 0.2+ 0.4+ 030711 A32 0.3+ 0.2-
030501 704 0.6+ 0.0 030531 H72 0.4+ 0.1- 030711 A32 0.1+ 0.1+
030501 673 0.7+ 0.7+ 030531 H72 0.5- 0.1- 030711 H41 0.4+ 0.3+
030501 704 0.9- 0.7+ 030531 H72 0.7- 0.2+ 030711 H41 0.0 0.4+
030501 673 0.9+ 0.5+ 030531 H72 0.7- 0.5+ 030711 939 1.2- 1.1+
030501 926 0.2+ 0.1- 030531 H72 0.3- 0.3- 030711 939 1.5- 0.0
030501 926 0.1+ 0.1+ 030531 H72 0.3- 0.3- 030711 176 0.2+ 0.2-
030501 926 0.3- 0.5- 030601 213 0.4+ 0.4- 030711 939 1.1- 0.7-
030501 673 0.9+ 0.5+ 030601 349 0.3- 0.2- 030711 176 0.1- 0.1-
030501 673 0.8+ 0.2- 030601 349 0.1+ 0.1+ 030711 176 0.2- 0.0
030501 349 0.1- 0.8- 030601 349 0.2+ 0.0 030711 176 0.4- 0.1+
030501 349 0.5- 0.4- 030601 379 0.6+ 0.4+ 030712 118 0.2+ 0.1+
030501 349 0.2+ 0.2- 030601 360 0.0 0.4+ 030712 118 0.6+ 0.4+
030501 349 0.3+ 0.2+ 030601 349 0.1- 0.2+ 030712 118 0.3+ 0.5+
030501 349 0.2- 0.4- 030601 379 0.6- 0.9- 030715 A32 0.6+ 0.2+
030502 H41 0.3+ 0.8- 030601 360 0.1- 0.0 030715 A46 0.2- 0.5-
030502 H41 0.3+ 1.1+ 030601 379 0.9+ 0.6- 030715 A32 0.7+ 0.1-
030502 340 0.1+ 0.3- 030602 H72 0.4+ 0.7+ 030715 A46 0.1- 0.2-
030502 340 0.2+ 0.7+ 030602 H72 0.6- 0.8+ 030715 A46 0.0 0.1-
030502 340 0.2- 0.7+ 030602 H72 0.3+ 0.3+ 030715 A46 0.2- 0.1-
030502 340 0.8+ 0.2+ 030602 H72 0.5+ 0.0 030715 A46 0.3+ 0.1+
030502 340 0.6- 1.3+ 030602 H72 0.5- 0.7- 030715 A46 0.5- 0.5+
030503 D83 0.3- 0.3- 030602 H72 0.5+ 0.4- 030715 H41 0.3- 0.3-
030503 D83 (2.8- 2.2+) 030602 H72 0.4+ 0.8- 030715 H41 0.3- 0.3-
030503 D83 1.8+ 1.2+ 030603 048 1.2- 0.5+ 030715 048 0.3- 0.1-
030503 372 0.0 1.0+ 030603 048 (2.0- 0.8+) 030715 048 0.1+ 0.9-
030503 349 0.1- 0.1- 030603 048 1.5- 0.9- 030715 048 0.1- 0.5-
030503 349 0.5- 0.2- 030603 048 0.8- 1.3- 030715 048 0.2+ 0.1+
030503 349 0.1+ 0.3+ 030603 048 1.4- 0.8- 030715 048 1.0- 0.1-
030503 349 0.5+ 0.1+ 030603 H72 0.4- 0.6+ 030716 A46 0.1+ 0.3-
030503 349 0.7+ 0.1+ 030603 H72 1.0- 0.6+ 030716 A46 1.5- 0.2+
030504 170 0.4- 0.8- 030603 H72 1.1- 0.7+ 030716 A46 0.5- 0.5+
030504 170 1.6- 0.2+ 030603 H72 0.4- 0.2+ 030716 A46 1.0- 0.6+
030505 048 0.5+ 0.6- 030603 H72 0.2+ 0.4+ 030716 A46 0.5- 0.8-
030505 048 0.4+ 0.8- 030603 H72 0.5- 0.5- 030716 A46 0.9- 1.0-
030505 048 0.6- 1.0- 030603 H72 0.2- 0.5- 030716 H41 0.6+ 0.6+
030505 048 1.0- 0.6- 030603 H41 0.2- 0.3- 030716 H41 0.3+ 0.9+
030505 048 0.5- 0.4+ 030603 H41 0.0 0.2+ 030717 H72 0.7- 0.4-
030505 048 0.5+ 1.0+ 030604 246 0.3+ 0.2+ 030717 H72 0.8- 0.7-
030506 118 0.0 0.3+ 030604 246 0.4+ 0.2+ 030717 H72 (2.9+ 0.8+)
030506 118 0.4+ 0.1+ 030604 246 0.3+ 0.1+ 030717 204 0.5- 0.4-
030506 118 0.1+ 0.5+ 030604 246 0.4+ 0.1+ 030717 204 0.4- 0.7-
030508 048 1.8+ 0.5+ 030604 246 0.3+ 0.0 030717 204 0.2- 0.6-
030508 048 1.4+ 0.7+ 030604 048 0.3- 0.2+ 030717 204 0.3+ 0.0
030508 048 (2.6+ 0.4-) 030604 048 0.0 0.5- 030718 204 0.1- 0.3+
030508 048 (2.6+ 0.0 ) 030604 048 1.3- 1.0- 030719 A46 0.4+ 0.2+
030508 372 0.8- 1.0+ 030605 360 0.2+ 0.1- 030719 A46 0.3- 0.2+
030509 372 1.8- 0.5- 030605 360 0.1+ 0.1+ 030719 A46 0.1+ 0.1-
030509 349 0.6+ 0.4+ 030608 232 0.1- 0.9+ 030719 A46 0.6- 0.8-
030509 349 0.5- 1.8+ 030608 232 0.5- 0.0 030719 A46 0.5- 0.7-
030509 340 0.5- 0.7- 030608 232 1.2- 1.9- 030719 A46 0.6- 0.6-
030509 349 1.3- 0.6+ 030608 H41 0.5- 0.8+ 030719 J87 1.2- 0.5+
030509 340 0.4- 0.4- 030609 H41 0.5+ 0.8+ 030719 J87 1.6- 0.5-
030510 J87 0.6+ 0.5+ 030609 H41 0.1+ 0.1+ 030719 J87 0.6+ 0.9-
030510 J87 0.2- 0.7- 030610 048 0.7- 0.3+ 030719 170 0.1- 0.5+
030510 J87 0.6- 0.1- 030610 048 0.2+ 0.3+ 030719 170 0.0 0.6+
030510 213 (3.2- 6.8-) 030610 048 0.3+ 0.1- 030719 048 0.1+ 0.4+
030510 213 (1.3- 2.8-) 030610 048 0.0 0.0 030719 048 0.4+ 0.1+
030510 213 0.5+ 0.3+ 030610 048 0.4- 0.4+ 030719 048 0.1+ 0.2+
030510 232 (3.2+ 1.9+) 030610 048 0.1+ 0.3- 030719 170 0.4+ 0.6+
030510 232 (1.7- 2.2+) 030610 048 0.5+ 0.2- 030719 048 0.4- 0.2+
030510 232 (8.0- 0.5+) 030610 048 0.1+ 0.6+ 030719 048 0.2- 0.3+
030510 170 0.7+ 1.5- 030610 048 0.5+ 0.3+ 030719 046 0.1+ 0.2+
030510 170 0.1- 0.7- 030610 048 0.6+ 0.4+ 030719 046 0.1+ 0.2+
030510 170 0.4- 0.3+ 030616 048 0.1+ 0.5- 030719 046 0.0 0.3+
030510 608 1.0- 0.5+ 030616 048 0.3- 0.2- 030720 A32 0.2+ 0.1+
030510 608 0.1- 1.6- 030616 048 0.0 0.1+ 030720 A32 0.1+ 0.1+
030510 608 0.1+ 0.3- 030616 048 0.0 0.1+ 030720 A32 0.1+ 0.3-
030511 H41 0.3- 0.2+ 030616 048 0.1- 0.4- 030720 A32 0.1- 0.1+
030513 H41 0.9+ 0.1+ 030619 H41 0.1+ 0.6- 030720 A32 0.0 0.0
030513 H41 0.4- 0.2+ 030619 H41 0.5+ 0.3+ 030720 A46 0.2+ 0.2+
030518 213 1.0+ 0.8+ 030620 H41 0.4+ 0.1+ 030720 A46 0.1- 0.8-
030518 213 0.5- 0.2+ 030620 349 0.1- 0.4- 030720 A46 0.6- 0.2-
030518 213 1.6- 0.3- 030620 349 0.0 0.6+ 030720 A46 0.0 0.2-
030519 H41 0.5+ 0.5+ 030620 349 0.3+ 0.4+ 030720 232 1.5+ 0.6-
030521 620 0.2+ 0.1+ 030620 235 0.4+ 1.0+ 030720 A46 0.6+ 0.3+
030521 620 0.1+ 0.0 030621 213 0.2- 0.2+ 030720 A46 0.3- 0.2+
030521 620 0.4- 0.1+ 030621 213 0.2- 0.2+ 030720 232 0.3- 0.2+
030521 620 0.4+ 0.2- 030621 213 0.1- 0.1- 030720 232 0.5+ 0.9+
030521 620 0.1- 0.3+ 030621 215 0.4+ 0.2+ 030720 H72 0.3+ 0.5+
030521 620 0.1+ 0.1- 030621 215 0.2+ 0.3+ 030720 H72 0.1- 0.4+
030522 204 (2.0+ 2.2+) 030621 215 0.1+ 0.2+ 030720 H72 0.6+ 0.9+
030522 H41 1.2+ 0.3- 030622 232 0.2+ 0.6- 030721 A46 1.5+ 0.1+
030522 H41 0.7+ 0.0 030622 232 0.3+ 0.3+ 030721 A46 (2.1+ 0.3+)
030523 048 0.2+ 0.1+ 030622 232 0.2- 0.7+ 030721 A46 0.0 0.2+
030523 048 0.9+ 0.6+ 030622 H41 0.3+ 0.1- 030721 A46 0.7+ 0.4-
030523 048 0.4+ 0.0 030623 H41 0.0 0.4- 030721 A46 0.0 0.3-
030523 048 0.8- 0.1- 030623 H41 0.1+ 0.2+ 030721 A46 1.1- 0.2+
030523 048 0.0 0.1+ 030624 785 0.2- 0.2- 030721 379 0.0 0.6-
030523 048 0.5- 0.1+ 030624 785 0.1+ 0.2- 030721 379 0.8- 0.0
030523 048 0.4- 0.6- 030624 H41 0.0 0.2- 030721 379 0.1- 0.3+
030523 048 0.9- 0.8- 030624 H41 0.2- 0.4- 030721 900 0.7- 0.1-
030523 048 0.3- 0.6- 030624 127 0.3+ 0.3+ 030721 900 0.1- 0.2-
030523 048 0.7- 0.8- 030624 127 0.4+ 0.4+ 030721 J87 0.2+ 0.1+
030523 H41 1.0+ 0.2+ 030625 127 0.4+ 0.2+ 030721 J87 0.3- 0.1+
030523 H41 0.9+ 0.2+ 030625 H41 0.1- 0.4- 030721 J87 0.1- 0.1-
030524 159 1.2+ 0.3- 030625 H41 0.5+ 0.0 030722 A32 0.9+ 0.2-
030524 212 0.8+ 0.4- 030626 118 0.1- 0.3- 030722 A32 0.6+ 0.2-
030524 159 0.3+ 0.4- 030626 118 0.0 0.4- 030722 A32 0.4+ 0.1+
030524 212 0.7+ 0.9+ 030626 118 0.1+ 0.1+ 030722 A32 0.5+ 0.3+
030524 159 0.4+ 0.1+ 030627 H41 0.1+ 0.0 030722 A32 0.4+ 0.7+
030524 159 0.1+ 0.0 030627 H41 0.1- 0.4- 030724 762 0.3- 0.2+
030524 159 0.3+ 0.1- 030628 H41 1.0- 1.2- 030724 762 0.3+ 0.3+
030524 939 0.8- 0.1+ 030628 H41 0.3+ 0.7- 030724 379 0.1+ 1.3-
030524 939 0.3- 0.6- 030628 H41 0.1+ 0.5- 030724 379 0.6+ 0.8-
030524 939 0.0 0.8- 030628 616 0.4- 0.1- 030724 379 0.3+ 0.8-
